Weather History for KPRN - December, 2013

Change the Weather History Date:

Sunday, December 22, 2013

  Actual Average (KTOI) Record (KTOI)
Temperature  
Mean Temperature 64 °F 47 °F  
Max Temperature 73 °F 59 °F - ()
Min Temperature 54 °F 36 °F - ()
Degree Days  
Heating Degree Days 1 18  
Month to date heating degree days 357  
Since 1 July heating degree days 750  
Growing Degree Days 14 (Base 50)    
Moisture  
Dew Point 58 °F    
Average Humidity 93    
Maximum Humidity 100    
Minimum Humidity 83    
Precipitation  
Precipitation 4.95 in 0.15 in - ()
Month to date precipitation 3.72  
Year to date precipitation 53.50  
Snow  
Snow 0.00 in - - ()
Month to date snowfall  
Since 1 July snowfall  
Snow Depth -    
Sea Level Pressure  
Sea Level Pressure 29.98 in    
Wind  
Wind Speed 9 mph (North)    
Max Wind Speed 20 mph    
Max Gust Speed 29 mph    
Visibility 4 miles    
Events Fog , Rain , Thunderstorm    
T = Trace of Precipitation, MM = Missing Value Source: NWS Daily Summary

Daily Weather History Graph

Daily Weather History Graph

Search for Another Location

Airport or City:

Trip Planner

Search our weather history database for the weather conditions in past years. The results will help you decide how hot, cold, wet, or windy it might be!

Date:

Astronomy

Dec. 22, 2013 Rise Set
Actual Time 6:43 AM CST 4:47 PM CST
Civil Twilight 6:16 AM CST 5:14 PM CST
Nautical Twilight 5:45 AM CST 5:44 PM CST
Astronomical Twilight 5:15 AM CST 6:14 PM CST
Moon 9:42 PM CST (12/22) 9:54 AM CST (12/22)
Length of Visible Light 10h 58m
Length of Day
10h 04m
Waning Gibbous, 76% of the Moon is Illuminated
Dec 22
Waning Gibbous
Dec 25
Last Quarter
Jan 1
New
Jan 7
First Quarter
Jan 15
Full

Hourly Weather History & Observations

Time (CST) Temp. Dew Point Humidity Pressure Visibility Wind Dir Wind Speed Gust Speed Precip Events Conditions
12:35 AM 73.4 °F 68.0 °F 83% 29.89 in 10.0 mi South 16.1 mph 24.2 mph N/A   Overcast
12:56 AM 73.0 °F 68.0 °F 84% 29.88 in 10.0 mi South 13.8 mph 23.0 mph N/A   Overcast
1:56 AM 73.0 °F 68.0 °F 84% 29.88 in 10.0 mi South 12.7 mph 21.9 mph N/A   Overcast
2:37 AM 73.4 °F 68.0 °F 83% 29.88 in 10.0 mi South 12.7 mph 24.2 mph N/A   Overcast
2:56 AM 73.0 °F 68.0 °F 84% 29.86 in 10.0 mi South 16.1 mph 23.0 mph N/A   Overcast
3:12 AM 73.4 °F 68.0 °F 83% 29.87 in 10.0 mi South 11.5 mph 26.5 mph 0.00 in   Overcast
3:40 AM 73.4 °F 69.8 °F 88% 29.87 in 7.0 mi South 11.5 mph 24.2 mph 0.01 in Rain Light Rain
3:56 AM 72.0 °F 69.1 °F 91% 29.85 in 10.0 mi South 15.0 mph 23.0 mph 0.01 in Rain Light Rain
4:37 AM 73.4 °F 69.8 °F 88% 29.86 in 10.0 mi South 19.6 mph 24.2 mph 0.00 in   Overcast
4:54 AM 73.4 °F 69.8 °F 88% 29.87 in 9.0 mi South 13.8 mph 28.8 mph 0.01 in Rain Light Rain
4:56 AM 72.0 °F 69.1 °F 91% 29.86 in 9.0 mi South 13.8 mph 24.2 mph 0.01 in Rain Light Rain
5:25 AM 71.6 °F 69.8 °F 94% 29.88 in 10.0 mi South 12.7 mph - 0.00 in   Overcast
5:56 AM 72.0 °F 69.1 °F 91% 29.88 in 5.0 mi South 9.2 mph 16.1 mph 0.03 in Rain Heavy Rain
6:56 AM 72.0 °F 69.1 °F 91% 29.89 in 4.0 mi South 11.5 mph - 0.10 in Rain Rain
7:03 AM 71.6 °F 69.8 °F 94% 29.92 in 6.0 mi Variable 4.6 mph - 0.00 in Rain Light Rain
7:12 AM 66.2 °F 62.6 °F 88% 29.93 in 10.0 mi WNW 9.2 mph 19.6 mph 0.00 in Rain Light Rain
7:21 AM 64.4 °F 62.6 °F 94% 29.95 in 2.5 mi NW 13.8 mph 19.6 mph 0.11 in Rain Heavy Rain
7:27 AM 62.6 °F 60.8 °F 94% 29.97 in 1.2 mi Variable 5.8 mph 19.6 mph 0.26 in Rain Heavy Rain
7:31 AM 62.6 °F 60.8 °F 94% 29.97 in 0.5 mi WNW 9.2 mph - 0.40 in Fog , Rain Heavy Rain
7:41 AM 60.8 °F 59.0 °F 94% 29.99 in 1.0 mi WNW 16.1 mph 20.7 mph 0.53 in Rain Heavy Rain
7:56 AM 60.1 °F 57.9 °F 93% 29.97 in 2.5 mi NNW 9.2 mph - 0.63 in Rain Heavy Rain
8:02 AM 60.8 °F 57.2 °F 88% 29.99 in 2.0 mi NW 9.2 mph - 0.06 in Rain , Thunderstorm Heavy Thunderstorms and Rain
8:09 AM 59.0 °F 57.2 °F 94% 29.98 in 1.0 mi NNW 12.7 mph 16.1 mph 0.18 in Rain , Thunderstorm Heavy Thunderstorms and Rain
8:18 AM 59.0 °F 55.4 °F 88% 30.02 in 3.0 mi NW 4.6 mph - 0.20 in Rain , Thunderstorm Light Thunderstorms and Rain
8:28 AM 59.0 °F 57.2 °F 94% 30.01 in 2.0 mi North 4.6 mph - 0.27 in Rain , Thunderstorm Thunderstorms and Rain
8:35 AM 57.2 °F 55.4 °F 94% 30.00 in 7.0 mi NNW 8.1 mph - 0.27 in Rain , Thunderstorm Thunderstorms and Rain
8:56 AM 57.9 °F 55.0 °F 90% 30.02 in 2.5 mi Variable 3.5 mph - 0.33 in Rain Heavy Rain
9:05 AM 55.4 °F 55.4 °F 100% 30.01 in 1.5 mi North 4.6 mph - 0.06 in Rain Heavy Rain
9:33 AM 57.2 °F 55.4 °F 94% 30.02 in 1.2 mi East 5.8 mph - 0.32 in Rain , Thunderstorm Heavy Thunderstorms and Rain
9:41 AM 57.2 °F 55.4 °F 94% 30.02 in 0.8 mi North 3.5 mph - 0.49 in Rain , Thunderstorm Heavy Thunderstorms and Rain
9:56 AM 57.0 °F 55.0 °F 93% 30.01 in 1.8 mi NNE 4.6 mph - 0.65 in Rain , Thunderstorm Heavy Thunderstorms and Rain
10:07 AM 57.2 °F 55.4 °F 94% 30.03 in 2.0 mi Calm Calm - 0.05 in Rain , Thunderstorm Heavy Thunderstorms and Rain
10:13 AM 57.2 °F 55.4 °F 94% 30.03 in 3.0 mi Calm Calm - 0.07 in Rain , Thunderstorm Thunderstorms and Rain
10:24 AM 57.2 °F 55.4 °F 94% 30.01 in 5.0 mi NNE 4.6 mph - 0.09 in Rain , Thunderstorm Thunderstorms and Rain
10:41 AM 57.2 °F 55.4 °F 94% 30.01 in 6.0 mi ENE 4.6 mph - 0.11 in Rain Light Rain
10:56 AM 57.0 °F 55.9 °F 96% 30.01 in 3.0 mi East 3.5 mph - 0.17 in Rain Rain
11:01 AM 57.2 °F 55.4 °F 94% 30.01 in 2.5 mi NE 3.5 mph - 0.04 in Rain Heavy Rain
11:07 AM 57.2 °F 55.4 °F 94% 30.01 in 1.8 mi East 3.5 mph - 0.07 in Rain Heavy Rain
11:12 AM 57.2 °F 55.4 °F 94% 30.00 in 3.0 mi NNE 4.6 mph - 0.08 in Rain Rain
11:15 AM 57.2 °F 55.4 °F 94% 29.99 in 2.5 mi NNE 6.9 mph - 0.10 in Rain , Thunderstorm Heavy Thunderstorms and Rain
11:23 AM 57.2 °F 55.4 °F 94% 30.01 in 1.2 mi North 3.5 mph - 0.20 in Rain , Thunderstorm Heavy Thunderstorms and Rain
11:36 AM 57.2 °F 55.4 °F 94% 30.00 in 1.0 mi NNE 6.9 mph - 0.37 in Rain Heavy Rain
11:50 AM 57.2 °F 55.4 °F 94% 29.99 in 3.0 mi NNE 5.8 mph - 0.44 in Rain Rain
11:56 AM 57.9 °F 55.9 °F 93% 29.97 in 3.0 mi NNE 6.9 mph - 0.45 in Rain Heavy Rain
12:07 PM 57.2 °F 57.2 °F 100% 29.98 in 2.5 mi NE 4.6 mph - 0.03 in Rain Rain
12:18 PM 57.2 °F 57.2 °F 100% 29.98 in 3.0 mi North 6.9 mph - 0.07 in Rain Rain
12:25 PM 57.2 °F 57.2 °F 100% 29.99 in 3.0 mi North 4.6 mph - 0.09 in Rain Heavy Rain
12:33 PM 57.2 °F 55.4 °F 94% 30.00 in 2.0 mi North 4.6 mph - 0.12 in Rain Heavy Rain
12:41 PM 57.2 °F 55.4 °F 94% 29.99 in 1.8 mi North 9.2 mph - 0.19 in Rain , Thunderstorm Heavy Thunderstorms and Rain
12:45 PM 57.2 °F 55.4 °F 94% 30.00 in 2.0 mi North 5.8 mph - 0.20 in Rain , Thunderstorm Thunderstorms and Rain
12:56 PM 57.0 °F 55.9 °F 96% 29.98 in 1.8 mi NNE 8.1 mph - 0.29 in Rain , Thunderstorm Heavy Thunderstorms and Rain
1:09 PM 57.2 °F 55.4 °F 94% 29.98 in 2.0 mi NE 5.8 mph - 0.09 in Rain Rain
1:18 PM 57.2 °F 55.4 °F 94% 29.98 in 8.0 mi NNE 6.9 mph - 0.09 in Rain Light Rain
1:33 PM 57.2 °F 55.4 °F 94% 29.99 in 2.5 mi NNE 6.9 mph - 0.13 in Rain Rain
1:41 PM 57.2 °F 55.4 °F 94% 29.98 in 3.0 mi NE 4.6 mph - 0.15 in Rain Rain
1:56 PM 57.0 °F 55.9 °F 96% 29.96 in 5.0 mi ENE 5.8 mph - 0.17 in Rain Light Rain
2:19 PM 57.2 °F 55.4 °F 94% 29.97 in 1.8 mi East 5.8 mph - 0.09 in Rain Heavy Rain
2:26 PM 57.2 °F 55.4 °F 94% 29.97 in 3.0 mi Variable 3.5 mph - 0.10 in Rain Light Rain
2:46 PM 57.2 °F 55.4 °F 94% 29.97 in 9.0 mi NNE 3.5 mph - 0.11 in Rain Light Rain
2:56 PM 57.9 °F 55.9 °F 93% 29.96 in 10.0 mi Calm Calm - 0.11 in Rain Light Rain
3:56 PM 57.9 °F 55.9 °F 93% 29.94 in 4.0 mi NNE 4.6 mph - 0.12 in Rain Heavy Rain
4:05 PM 57.2 °F 55.4 °F 94% 29.96 in 1.8 mi ENE 3.5 mph - 0.22 in Rain Heavy Rain
4:11 PM 57.2 °F 55.4 °F 94% 29.97 in 0.8 mi NNW 6.9 mph - 0.41 in Rain Heavy Rain
4:15 PM 57.2 °F 55.4 °F 94% 29.97 in 1.0 mi NNW 5.8 mph - 0.48 in Rain Heavy Rain
4:25 PM 57.2 °F 55.4 °F 94% 29.98 in 1.0 mi Calm Calm - 0.63 in Rain Heavy Rain
4:40 PM 57.2 °F 55.4 °F 94% 29.99 in 2.5 mi NNW 4.6 mph - 0.73 in Rain Heavy Rain
4:56 PM 57.0 °F 55.9 °F 96% 29.99 in 3.0 mi NNW 3.5 mph - 0.79 in Rain Heavy Rain
5:11 PM 57.2 °F 55.4 °F 94% 30.01 in 2.0 mi NNW 3.5 mph - 0.13 in Rain Heavy Rain
5:30 PM 57.2 °F 55.4 °F 94% 30.02 in 1.2 mi NNW 5.8 mph - 0.32 in Rain Heavy Rain
5:44 PM 57.2 °F 55.4 °F 94% 30.02 in 3.0 mi Calm Calm - 0.40 in Rain Heavy Rain
5:51 PM 57.2 °F 55.4 °F 94% 30.03 in 3.0 mi North 3.5 mph - 0.44 in Rain Heavy Rain
5:56 PM 57.0 °F 55.9 °F 96% 30.05 in 2.5 mi NW 5.8 mph - 0.47 in Rain , Thunderstorm Heavy Thunderstorms and Rain
6:03 PM 57.2 °F 55.4 °F 94% 30.05 in 1.8 mi NW 8.1 mph - 0.10 in Rain , Thunderstorm Heavy Thunderstorms and Rain
6:20 PM 57.2 °F 55.4 °F 94% 30.08 in 4.0 mi WNW 3.5 mph - 0.23 in Rain Heavy Rain
6:56 PM 57.0 °F 55.0 °F 93% 30.06 in 4.0 mi NW 5.8 mph - 0.41 in Rain Rain
7:34 PM 55.4 °F 55.4 °F 100% 30.05 in 3.0 mi NNW 3.5 mph - 0.12 in Rain Heavy Rain
7:45 PM 55.4 °F 55.4 °F 100% 30.06 in 7.0 mi NNW 5.8 mph - 0.13 in Rain Light Rain
7:56 PM 55.9 °F 54.0 °F 93% 30.06 in 9.0 mi WNW 5.8 mph - 0.14 in Rain Light Rain
8:25 PM 55.4 °F 51.8 °F 88% 30.07 in 10.0 mi NNW 4.6 mph - 0.01 in Rain Light Rain
8:56 PM 55.0 °F 53.1 °F 93% 30.06 in 7.0 mi North 8.1 mph - 0.05 in Rain Rain
9:56 PM 55.0 °F 52.0 °F 89% 30.06 in 10.0 mi North 4.6 mph - 0.01 in   Overcast
10:56 PM 55.0 °F 52.0 °F 89% 30.09 in 10.0 mi NW 3.5 mph - N/A   Overcast
11:56 PM 54.0 °F 52.0 °F 93% 30.09 in 10.0 mi North 3.5 mph - 0.01 in   Overcast